Weather reports worldwide

Advertisment
Bedford, United Kingdom (3560): temperature & dewpoint: 16.04.2018 15:00:00 - 22.04.2018 15:00:00 (BST)Bedford, United Kingdom (3560): temperature -20cm & temperature -100cm: 16.04.2018 15:00:00 - 22.04.2018 15:00:00 (BST)Bedford, United Kingdom (3560): wind speed & gusts: 16.04.2018 15:00:00 - 22.04.2018 15:00:00 (BST)Bedford, United Kingdom (3560): wind direction: 16.04.2018 15:00:00 - 22.04.2018 15:00:00 (BST)Bedford, United Kingdom (3560): reduced air pressure: 16.04.2018 15:00:00 - 22.04.2018 15:00:00 (BST)Bedford, United Kingdom (3560): visibility: 16.04.2018 15:00:00 - 22.04.2018 15:00:00 (BST)Bedford, United Kingdom (3560): precipitation: 16.04.2018 15:00:00 - 22.04.2018 15:00:00 (BST)
Date & Time tt [°C] td [°C] tt -20cm [°C] tt -100cm [°C] ff [km/h] ff [kn] fx [km/h] fx [kn] dd ppp [hPa] vv [km] rr [mm]
22.04.2018 15:00:00 20,1 12,3 - - 18 10 - - WSW 1007,5 24 0,0
22.04.2018 14:00:00 20,7 11,0 - - 21 11 - - SW 1007,5 40 0,0
22.04.2018 13:00:00 20,4 13,2 - - 21 11 - - WSW 1007,7 40 0,0
22.04.2018 12:00:00 20,3 12,9 - - 16 9 - - SW 1008,0 23 0,0
22.04.2018 11:00:00 19,3 13,0 - - 22 12 - - SW 1008,3 30 0,0
22.04.2018 10:00:00 18,2 13,7 13,7 9,0 21 11 - - SW 1008,2 30 0,0
22.04.2018 09:00:00 16,7 13,5 - - 18 10 - - SSW 1008,6 13 0,0
22.04.2018 08:00:00 14,9 13,1 - - 9 5 - - S 1008,8 9 0,0
22.04.2018 07:00:00 13,3 12,0 - - 9 5 - - S 1009,3 20 0,0
22.04.2018 06:00:00 12,9 11,5 - - 15 8 - - SSE 1009,7 40 0,0
22.04.2018 05:00:00 13,0 11,2 - - 8 4 - - S 1010,5 50 1,2
22.04.2018 04:00:00 14,5 11,8 - - 13 7 - - SW 1012,6 40 0,0
22.04.2018 03:00:00 13,5 12,3 - - 15 8 - - SSE 1012,4 50 0,4
22.04.2018 02:00:00 13,9 12,5 - - 16 9 46 25 S 1013,9 11 2,4
22.04.2018 01:00:00 16,0 12,9 - - 22 12 - - S 1014,6 18 0,0
22.04.2018 00:00:00 15,5 13,3 - - 11 6 - - W 1014,1 7 0,6
21.04.2018 23:00:00 14,8 12,0 - - 11 6 - - S 1015,4 5 0,0
21.04.2018 22:00:00 15,1 11,6 - - 16 9 - - SSE 1014,9 9 0,0
21.04.2018 21:00:00 15,5 11,6 - - 16 9 - - SE 1014,9 12 0,0
21.04.2018 20:00:00 16,9 12,5 - - 16 9 - - SE 1015,3 20 0,0
21.04.2018 19:00:00 18,1 14,0 - - 13 7 - - SE 1015,6 12 0,0
21.04.2018 18:00:00 19,7 15,0 - - 21 11 - - SE 1016,6 14 0,0
21.04.2018 17:00:00 20,7 13,3 - - 15 8 - - S 1017,4 16 0,0
21.04.2018 16:00:00 22,3 14,7 - - 11 6 - - S 1017,8 19 0,0
21.04.2018 15:00:00 22,1 14,4 - - 13 7 - - SSE 1018,8 30 0,0
21.04.2018 14:00:00 21,2 13,3 - - 11 6 - - SSE 1019,7 30 0,0
21.04.2018 13:00:00 19,7 12,9 - - 15 8 - - SSE 1020,3 17 0,0
21.04.2018 12:00:00 19,1 12,1 - - 15 8 - - SE 1020,9 26 0,0
21.04.2018 11:00:00 16,5 10,5 - - 16 9 - - ESE 1021,8 23 0,0
21.04.2018 10:00:00 15,8 11,7 13,2 8,7 13 7 - - E 1022,3 15 0,0
21.04.2018 09:00:00 13,8 11,5 - - 11 6 - - ENE 1022,5 11 0,0
21.04.2018 08:00:00 11,5 10,7 - - 9 5 - - NE 1022,8 3,8 0,0
21.04.2018 07:00:00 10,1 9,3 - - 5 3 - - NE 1023,0 4,1 0,0
21.04.2018 06:00:00 9,7 9,0 - - 8 4 - - NE 1022,9 4,6 0,0
21.04.2018 05:00:00 9,7 9,0 - - 8 4 - - NE 1022,9 3,5 0,0
21.04.2018 04:00:00 9,8 9,1 - - 5 3 - - ENE 1023,2 4,3 0,0
21.04.2018 03:00:00 10,2 9,0 - - 5 3 - - NE 1023,4 8 0,0
21.04.2018 02:00:00 11,0 8,5 - - 11 6 - - NNE 1023,6 14 0,0
21.04.2018 01:00:00 12,6 9,2 - - 13 7 - - N 1023,9 19 0,0
21.04.2018 00:00:00 13,8 9,1 - - 13 7 - - N 1023,8 35 0,0
20.04.2018 23:00:00 15,1 9,2 - - 11 6 - - N 1023,6 40 0,0
20.04.2018 22:00:00 15,7 9,7 - - 9 5 - - NNW 1023,7 40 0,0
20.04.2018 21:00:00 16,9 9,3 - - 13 7 - - NW 1023,6 45 0,0
20.04.2018 20:00:00 19,2 9,1 - - 5 3 - - NW 1023,1 45 0,0
20.04.2018 19:00:00 20,6 8,8 - - 9 5 - - NW 1022,9 50 0,0
20.04.2018 18:00:00 20,8 8,7 - - 9 5 - - NNW 1023,0 50 0,0
20.04.2018 17:00:00 21,3 9,7 - - 11 6 - - NW 1023,0 30 0,0
20.04.2018 16:00:00 21,5 10,9 - - 13 7 - - NW 1023,2 45 0,0
20.04.2018 15:00:00 21,0 11,7 - - 11 6 - - NNW 1023,5 35 0,0
20.04.2018 14:00:00 20,9 13,0 - - 9 5 - - NW 1023,6 40 0,0
20.04.2018 13:00:00 20,3 13,8 - - 16 9 - - NNW 1023,8 17 0,0
20.04.2018 12:00:00 19,8 12,5 - - 9 5 - - WNW 1023,8 22 0,0
20.04.2018 11:00:00 18,8 12,9 - - 8 4 - - NW 1023,8 14 0,0
20.04.2018 10:00:00 17,1 12,4 12,5 8,5 8 4 - - NNW 1023,8 15 0,0
20.04.2018 09:00:00 15,3 11,6 - - 8 4 - - N 1023,5 15 0,0
20.04.2018 08:00:00 13,2 11,0 - - 9 5 - - WNW 1023,3 13 0,0
20.04.2018 07:00:00 11,9 10,4 - - 11 6 - - W 1023,1 12 0,0
20.04.2018 06:00:00 12,1 10,3 - - 13 7 - - W 1022,5 11 0,0
20.04.2018 05:00:00 12,8 10,1 - - 9 5 - - W 1022,0 25 0,0
20.04.2018 04:00:00 13,3 10,1 - - 11 6 - - W 1022,1 35 0,0
20.04.2018 03:00:00 14,3 10,2 - - 11 6 - - W 1022,1 45 0,0
20.04.2018 02:00:00 15,5 10,5 - - 13 7 - - W 1022,3 45 0,0
20.04.2018 01:00:00 15,4 10,7 - - 15 8 - - W 1022,7 45 0,0
20.04.2018 00:00:00 16,5 11,1 - - 11 6 - - W 1022,6 45 0,0
19.04.2018 23:00:00 17,6 11,1 - - 2 1 - - SSE 1022,6 50 0,0
19.04.2018 22:00:00 18,0 11,1 - - 0 0 - - N 1022,8 45 0,0
19.04.2018 21:00:00 17,4 10,4 - - 8 4 - - SE 1022,9 45 0,0
19.04.2018 20:00:00 22,8 10,6 - - 8 4 - - WNW 1022,1 50 0,0
19.04.2018 19:00:00 25,0 10,9 - - 8 4 - - W 1021,9 50 0,0
19.04.2018 18:00:00 25,7 11,0 - - 8 4 - - W 1022,0 35 0,0
19.04.2018 17:00:00 26,1 11,4 - - 13 7 - - W 1022,0 50 0,0
19.04.2018 16:00:00 26,4 11,3 - - 9 5 - - WSW 1022,2 50 0,0
19.04.2018 15:00:00 26,8 11,9 - - 9 5 - - SW 1022,4 40 0,0
19.04.2018 14:00:00 26,6 13,1 - - 5 3 - - SSE 1022,7 22 0,0
19.04.2018 13:00:00 25,7 12,0 - - 8 4 - - SW 1023,0 26 0,0
19.04.2018 12:00:00 24,7 13,9 - - 8 4 - - SE 1023,3 30 0,0
19.04.2018 11:00:00 22,6 12,3 - - 8 4 - - SSE 1023,5 22 0,0
19.04.2018 10:00:00 19,8 11,9 11,2 8,2 8 4 - - S 1023,6 14 0,0
19.04.2018 09:00:00 16,5 11,0 - - 8 4 - - S 1023,7 12 0,0
19.04.2018 08:00:00 13,3 10,7 - - 9 5 - - SE 1023,7 8 0,0
19.04.2018 07:00:00 10,3 7,5 - - 9 5 - - SE 1023,6 8 -
19.04.2018 06:00:00 9,6 7,4 - - 11 6 - - SSE 1023,5 8 -
19.04.2018 05:00:00 8,9 7,0 - - 11 6 - - SSE 1023,6 7 -
19.04.2018 04:00:00 9,4 7,3 - - 9 5 - - SE 1024,1 8 -
19.04.2018 03:00:00 9,6 7,5 - - 13 7 - - SE 1024,2 8 -
19.04.2018 02:00:00 10,0 8,0 - - 13 7 - - SE 1024,8 8 0,0
19.04.2018 01:00:00 11,3 8,2 - - 13 7 - - SE 1025,1 11 0,0
19.04.2018 00:00:00 12,0 8,8 - - 18 10 - - SE 1025,2 12 0,0
18.04.2018 23:00:00 13,2 9,5 - - 16 9 - - SSE 1025,1 18 0,0
18.04.2018 22:00:00 14,5 9,8 - - 18 10 - - SSE 1025,2 35 0,0
18.04.2018 21:00:00 16,4 10,1 - - 28 15 - - SE 1025,0 35 0,0
18.04.2018 20:00:00 18,1 11,1 - - 24 13 - - SE 1024,9 45 0,0
18.04.2018 19:00:00 20,2 11,9 - - 24 13 - - SE 1024,9 50 0,0
18.04.2018 18:00:00 22,0 11,1 - - 21 11 - - SE 1025,1 40 0,0
18.04.2018 17:00:00 23,0 12,4 - - 21 11 - - SSE 1025,4 45 0,0
18.04.2018 16:00:00 23,1 12,4 - - 18 10 - - SSE 1025,8 40 0,0
18.04.2018 15:00:00 21,9 11,5 - - 16 9 - - SSE 1026,4 45 0,0
18.04.2018 14:00:00 21,1 12,5 - - 15 8 - - S 1027,1 40 0,0
18.04.2018 13:00:00 20,4 12,4 - - 11 6 - - SW 1027,4 45 0,0
18.04.2018 12:00:00 19,3 12,1 - - 16 9 - - SSW 1027,6 27 0,0
18.04.2018 11:00:00 18,1 12,3 - - 22 12 - - SSW 1027,6 50 0,0
18.04.2018 10:00:00 16,6 12,1 10,0 8,0 21 11 - - SSW 1027,5 28 0,0
18.04.2018 09:00:00 15,4 12,0 - - 18 10 - - SSW 1027,1 50 0,0
18.04.2018 08:00:00 13,7 11,7 - - 11 6 - - S 1026,8 30 0,0
18.04.2018 07:00:00 11,8 10,1 - - 13 7 - - SSE 1026,2 30 0,0
18.04.2018 06:00:00 13,0 10,7 - - 9 5 - - S 1025,7 26 0,0
18.04.2018 05:00:00 13,4 10,7 - - 13 7 - - SSW 1025,3 28 0,0
18.04.2018 04:00:00 13,2 10,7 - - 15 8 - - SSW 1025,0 25 0,0
18.04.2018 03:00:00 12,3 10,4 - - 15 8 - - S 1024,6 25 0,0
18.04.2018 02:00:00 13,0 10,5 - - 21 11 - - SSW 1024,1 40 0,0
18.04.2018 01:00:00 13,3 10,6 - - 21 11 - - SSW 1023,8 35 0,0
18.04.2018 00:00:00 12,8 11,0 - - 18 10 - - S 1023,4 25 0,0
17.04.2018 23:00:00 13,5 11,3 - - 22 12 - - SSW 1022,7 45 0,0
17.04.2018 22:00:00 13,9 11,4 - - 31 17 48 26 SSW 1022,1 50 0,0
17.04.2018 21:00:00 14,6 11,1 - - 34 18 55 30 SSW 1021,9 45 0,0
17.04.2018 20:00:00 14,8 10,4 - - 26 14 50 27 SSW 1021,0 50 0,0
17.04.2018 19:00:00 14,8 10,6 - - 28 15 55 30 SSW 1020,4 45 0,0
17.04.2018 18:00:00 15,4 10,1 - - 39 21 61 33 SSW 1019,7 45 0,0
17.04.2018 17:00:00 15,7 10,3 - - 31 17 52 28 SSW 1019,1 40 0,0
17.04.2018 16:00:00 15,9 9,7 - - 29 16 50 27 SSW 1018,8 45 0,0
17.04.2018 15:00:00 16,5 9,8 - - 34 18 55 30 SSW 1018,4 35 0,0
17.04.2018 14:00:00 16,0 8,5 - - 34 18 59 32 SSW 1018,2 45 0,0
17.04.2018 13:00:00 16,3 8,4 - - 39 21 65 35 SSW 1017,6 40 0,0
17.04.2018 12:00:00 15,6 5,8 - - 41 22 67 36 SSW 1017,6 40 0,0
17.04.2018 11:00:00 15,2 5,1 - - 37 20 59 32 S 1017,1 45 0,0
17.04.2018 10:00:00 13,2 6,6 9,5 8,0 29 16 54 29 S 1017,2 45 0,0
17.04.2018 09:00:00 11,7 6,2 - - 28 15 48 26 S 1017,1 40 0,0
17.04.2018 08:00:00 10,5 6,0 - - 24 13 - - S 1016,7 35 0,0
17.04.2018 07:00:00 10,1 5,6 - - 26 14 - - S 1016,1 40 0,0
17.04.2018 06:00:00 10,0 5,4 - - 24 13 - - S 1015,7 35 0,0
17.04.2018 05:00:00 9,9 5,3 - - 22 12 - - S 1016,0 30 0,0
17.04.2018 04:00:00 10,0 5,3 - - 24 13 - - S 1015,8 30 0,0
17.04.2018 03:00:00 10,2 4,8 - - 24 13 - - S 1016,3 35 0,0
17.04.2018 02:00:00 9,8 4,5 - - 22 12 - - S 1016,1 40 0,0
17.04.2018 01:00:00 9,9 4,1 - - 22 12 - - S 1016,0 50 0,0
17.04.2018 00:00:00 9,9 4,2 - - 18 10 - - S 1016,2 50 0,0
16.04.2018 23:00:00 9,4 4,3 - - 15 8 - - S 1016,0 45 0,0
16.04.2018 22:00:00 9,8 4,3 - - 15 8 - - S 1016,1 45 0,0
16.04.2018 21:00:00 10,0 3,5 - - 16 9 - - SSW 1016,0 50 0,0
16.04.2018 20:00:00 11,1 3,4 - - 22 12 - - SSW 1015,6 45 0,0
16.04.2018 19:00:00 12,5 3,9 - - 26 14 - - SSW 1014,6 40 0,0
16.04.2018 18:00:00 13,3 4,5 - - 26 14 - - SW 1014,2 40 0,0
16.04.2018 17:00:00 13,8 5,5 - - 21 11 - - SW 1014,1 35 0,0
16.04.2018 16:00:00 13,3 4,7 - - 24 13 - - SW 1014,0 50 0,0
16.04.2018 15:00:00 13,8 4,7 - - 24 13 - - SSW 1013,8 45 0,0

tt = temperature
td = dewpoint
tt -20cm = temperature -20cm
tt -100cm = temperature -100cm
ff = wind speed
fx = gusts
dd = wind direction
ppp = reduced air pressure
vv = visibility
rr = precipitation

Next stations